North Pole, Alaska, United States (99705)
Lat: 64.75N, Lon: 147.35W
Wx Zone: AKZ222
Local Info
Past Weather Observations for Friday, September 26, 2014

NOTE: This archive is for the closest National Weather Service station to North Pole. Information may differ from the station used for current weather conditions.

Click here for Long-term Archive

Time Weather Temperature Dewpoint Humidity Pressure Winds Precip Visibility
23:56
Clear
36°F / 2°C 21°F / -6°C 56% 29.83 in
(1010 mb)
ENE 9.2 mph
(ENE 15 kph)
- 10SM
22:56
Clear
36°F / 2°C 21°F / -6°C 56% 29.83 in
(1010 mb)
ENE 10.4 mph
(ENE 17 kph)
- 10SM
21:56
Clear
36°F / 2°C 23°F / -5°C 60% 29.83 in
(1010 mb)
ENE 5.8 mph
(ENE 9 kph)
- 10SM
20:56
Clear
37°F / 3°C 23°F / -5°C 56% 29.83 in
(1010 mb)
ENE 3.5 mph
(ENE 6 kph)
- 10SM
19:55
Partly Cloudy
41°F / 5°C 23°F / -5°C 49% 29.83 in
(1010 mb)
ENE 5.8 mph
(ENE 9 kph)
- 13SM
18:55
Partly Cloudy
45°F / 7°C 21°F / -6°C 39% 29.83 in
(1010 mb)
E 6.9 mph
(E 11 kph)
- 25SM
17:55
Partly Cloudy
50°F / 10°C 23°F / -5°C 35% 29.83 in
(1010 mb)
ENE 9.2 mph
(ENE 15 kph)
- 25SM
16:55
Partly Cloudy
54°F / 12°C 21°F / -6°C 28% 29.83 in
(1010 mb)
ENE 12.7 mph
(ENE 20 kph)
- 25SM
15:55
Partly Cloudy
54°F / 12°C 21°F / -6°C 28% 29.83 in
(1010 mb)
E 10.4 mph
(E 17 kph)
- 25SM
14:55
Mostly Cloudy
54°F / 12°C 21°F / -6°C 28% 29.86 in
(1011 mb)
E 13.8 mph
(E 22 kph)
- 25SM
13:55
Mostly Cloudy
54°F / 12°C 21°F / -6°C 28% 29.89 in
(1012 mb)
ENE 10.4 mph
(ENE 17 kph)
- 25SM
12:55
Mostly Cloudy
52°F / 11°C 21°F / -6°C 30% 29.89 in
(1012 mb)
ENE 8.1 mph
(ENE 13 kph)
- 85SM
11:55
Mostly Cloudy
50°F / 10°C 21°F / -6°C 32% 29.92 in
(1013 mb)
E 9.2 mph
(E 15 kph)
- 25SM
10:55
Mostly Cloudy
46°F / 8°C 23°F / -5°C 40% 29.92 in
(1013 mb)
ENE 6.9 mph
(ENE 11 kph)
- 25SM
09:55
Overcast
41°F / 5°C 21°F / -6°C 45% 29.92 in
(1013 mb)
E 9.2 mph
(E 15 kph)
- 25SM
08:55
Overcast
36°F / 2°C 21°F / -6°C 56% 29.95 in
(1014 mb)
ENE 10.4 mph
(ENE 17 kph)
- 25SM
07:55
Mostly Cloudy
30°F / -1°C 21°F / -6°C 69% 29.95 in
(1014 mb)
E 9.2 mph
(E 15 kph)
- 25SM
06:55
Partly Cloudy
28°F / -2°C 19°F / -7°C 69% 29.98 in
(1015 mb)
ENE 11.5 mph
(ENE 19 kph)
- 25SM
05:55
Partly Cloudy
28°F / -2°C 19°F / -7°C 69% 29.98 in
(1015 mb)
ENE 10.4 mph
(ENE 17 kph)
- 7SM
05:25
Clear
28°F / -2°C 21°F / -6°C 74% 29.98 in
(1015 mb)
ENE 9.2 mph
(ENE 15 kph)
- 7SM
03:56
Clear
28°F / -2°C 21°F / -6°C 74% 29.98 in
(1015 mb)
E 10.4 mph
(E 17 kph)
- 10SM
02:56
Clear
30°F / -1°C 21°F / -6°C 69% 30.01 in
(1016 mb)
ENE 11.5 mph
(ENE 19 kph)
- 10SM
01:56
Clear
30°F / -1°C 23°F / -5°C 75% 30.01 in
(1016 mb)
E 10.4 mph
(E 17 kph)
- 10SM
00:56
Clear
32°F / 0°C 23°F / -5°C 69% 30.01 in
(1016 mb)
ENE 11.5 mph
(ENE 19 kph)
- 10SM
Time Weather Temperature Dewpoint Humidity Pressure Winds Precip Visibility


Weather for websites

WeatherForYou.com, LLC is not responsible for any damages or problems caused by this service. Current weather conditions are obtained from the closest station including government and personal stations which may have varying degrees of accuracy. Weather forecasts are derived from the NOAA NDFD. Like all things, this site belongs to Jesus Christ... He just trusts me to maintain it. If you have any questions or comments email webmaster@weatherforyou.com

Copyright © 2014, WeatherForYou.com LLC. All rights reserved.